Weather observations for the past three days for
Yankton, Chan Gurney Municipal Airport
Metric (Imperial)
Date Time (cdt) Wind (kph) Vis. (km) Weather Sky Cond. Temperature (ºC) Relative Humidity Wind Chill (°C) Heat Index (°C) Pressure Precipitation (cm)
Air Dwpt 6 hour altimeter (cm) sea level (mb) 1 hr 3 hr 6 hr
Max. Min.
21 10:56 NE 19 16.09 NULL NULL 22.8 20.6 87% 76.4 1019.1
21 09:56 NE 15 16.09 NULL NULL 21.1 20 93% 76.43 1019.6
21 08:56 N 13 16.09 NULL NULL 18.9 18.3 96% 76.48 1020.2
21 07:56 E 6 16.09 NULL NULL 18.3 18.3 100% 76.45 1020.1
21 06:56 SE 11 16.09 NULL NULL 18.3 17.8 19.4 17.8 97% 76.43 1019.9 1.78
21 05:56 E 13 16.09 NULL NULL 18.3 17.2 93% 76.48 1020.3
21 04:56 E 17 16.09 NULL NULL 18.9 17.8 93% 76.53 1021.0
21 03:56 NE 19 16.09 NULL NULL 18.9 17.8 93% 76.53 1021.0 1.78
21 02:56 NE 33 G 41 16.09 Breezy NULL 18.3 17.8 97% 76.56 1021.4 0.64
21 01:56 N 33 G 44 6.44 Thunderstorm Heavy Rain Fog/Mist and Breezy NULL 18.3 17.8 97% 76.63 1022.5 1.14
21 00:56 NE 19 16.09 NULL NULL 19.4 18.3 19.4 18.3 93% 76.56 1021.4 0.03
20 23:56 E 11 16.09 Light Rain NULL 19.4 18.9 97% 76.53 1021.3
20 22:56 E 15 16.09 Light Rain NULL 19.4 18.3 93% 76.58 1021.7 0.03
20 21:56 E 19 16.09 Light Rain NULL 19.4 17.8 91% 76.5 1020.8
20 20:56 E 24 16.09 NULL NULL 19.4 18.3 93% 76.45 1020.2
20 19:56 E 20 16.09 NULL NULL 18.9 18.3 96% 76.53 1021.2
20 18:56 E 20 16.09 NULL NULL 18.3 17.8 18.3 17.2 97% 76.58 1021.9 0.03
20 17:56 E 26 16.09 NULL NULL 18.3 17.8 97% 76.66 1022.8
20 16:56 E 24 11.27 NULL NULL 17.8 17.2 96% 76.76 1024.3
20 15:56 NE 20 6.44 Light Rain Fog/Mist NULL 17.2 17.2 100% 76.78 1024.6 0.03 0.03
20 14:56 NE 11 11.27 Light Rain NULL 17.2 17.2 100% 76.84 1025.2
20 13:56 NE 7 16.09 NULL NULL 17.8 17.2 96% 76.84 1025.5
20 12:56 E 19 16.09 NULL NULL 17.2 16.7 17.2 16.1 97% 76.84 1025.3 0.03 1.6
20 11:56 E 19 4.83 Light Rain Fog/Mist NULL 16.1 16.1 100% 76.81 1025.1 0.81
20 10:56 E 19 9.66 Rain Fog/Mist NULL 16.1 16.1 100% 76.96 1026.9 0.56
20 09:56 N 11 16.09 Thunderstorm Rain NULL 16.7 16.1 96% 76.99 1027.5 0.08 0.2
20 08:56 E 19 8.05 Rain Fog/Mist NULL 16.7 15.6 93% 76.91 1026.2 0.13
20 07:56 E 15 16.09 NULL NULL 17.2 15.6 90% 76.89 1026.0
20 06:56 E 13 16.09 NULL NULL 16.7 15.6 17.8 16.7 93% 76.89 1025.9
20 05:56 E 17 16.09 NULL NULL 16.7 15.6 93% 76.86 1025.5
20 04:56 NE 13 16.09 NULL NULL 17.2 15.6 90% 76.89 1025.8
20 03:56 E 7 16.09 Light Rain NULL 17.2 15 87% 76.96 1026.7
20 02:56 E 13 16.09 NULL NULL 17.8 14.4 81% 76.91 1026.0
20 01:56 E 13 16.09 NULL NULL 17.8 15 84% 76.96 1026.7
20 00:56 NE 11 16.09 NULL NULL 17.8 14.4 21.7 17.8 81% 76.99 1027.2
19 23:56 NE 7 16.09 NULL NULL 18.3 15 81% 76.99 1027.3
19 22:56 E 9 16.09 NULL NULL 18.3 14.4 78% 76.94 1026.6
19 21:56 E 9 16.09 NULL NULL 18.3 14.4 78% 76.89 1026.0
19 20:56 E 11 16.09 NULL NULL 19.4 13.9 71% 76.86 1025.7
19 19:56 E 11 16.09 NULL NULL 20.6 13.9 66% 76.86 1025.7
19 18:56 NE 19 16.09 NULL NULL 21.7 12.8 22.2 18.9 57% 76.86 1025.4
19 17:56 NE 15 16.09 NULL NULL 21.7 13.3 59% 76.89 1025.9
19 16:56 NE 13 16.09 NULL NULL 21.1 13.3 61% 76.89 1025.9
19 15:56 N 15 16.09 NULL NULL 21.7 13.3 59% 76.91 1026.1
19 14:56 NE 9 16.09 NULL NULL 21.1 13.3 61% 76.94 1026.6
19 13:56 Vrbl 11 16.09 NULL NULL 20.6 13.3 63% 76.94 1026.6
19 12:56 N 7 16.09 NULL NULL 18.9 15 18.9 13.9 78% 76.96 1027.1
19 11:56 NW 11 16.09 NULL NULL 17.8 13.3 75% 76.96 1027.1
19 10:56 NW 11 16.09 NULL NULL 16.7 12.8 78% 76.94 1026.8
19 09:56 NW 13 16.09 NULL NULL 16.1 11.7 75% 76.94 1026.6
19 08:56 NW 19 16.09 NULL NULL 15.6 11.1 75% 76.86 1025.8
19 07:56 NW 19 16.09 NULL NULL 14.4 10.6 78% 76.78 1024.7
19 06:56 W 13 16.09 NULL NULL 15 12.8 16.7 15 87% 76.73 1023.9
19 05:56 W 7 16.09 NULL NULL 15.6 14.4 93% 76.66 1023.0
19 04:56 NW 6 16.09 NULL NULL 15.6 14.4 93% 76.56 1021.6
19 03:56 W 9 16.09 NULL NULL 16.1 14.4 90% 76.5 1020.7
19 02:56 W 9 16.09 NULL NULL 16.1 14.4 90% 76.4 1019.5
19 01:56 Calm 16.09 NULL NULL 16.7 14.4 86% 76.4 1019.3
19 00:56 N 9 16.09 NULL NULL 16.7 14.4 19.4 16.7 86% 76.33 1018.4
18 23:56 N 7 16.09 NULL NULL 17.2 15 87% 76.25 1017.3
18 22:56 NW 9 16.09 NULL NULL 17.8 15 84% 76.2 1016.4
18 21:56 NW 9 16.09 NULL NULL 18.3 14.4 78% 76.12 1015.4
18 20:56 NW 15 16.09 NULL NULL 18.9 15 78% 75.97 1013.3
18 19:56 NW 20 16.09 Overcast BKN049 OVC065 19.4 15.6 79% 75.9 1012.1
18 18:56 NW 13 16.09 NULL NULL 19.4 15 21.1 18.9 76% 75.84 1011.4
18 17:56 NW 19 16.09 NULL NULL 19.4 15.6 79% 75.67 1009.1
18 16:56 NW 28 G 37 16.09 Light Rain NULL 18.9 15 78% 75.64 1008.7
18 15:56 W 33 G 46 16.09 Overcast and Breezy OVC020 20 15.6 76% 75.59 1007.9
18 14:56 W 30 G 41 16.09 Overcast OVC018 20 16.1 78% 75.51 1007.1
18 13:56 W 35 G 48 16.09 Overcast and Breezy OVC014 20.6 17.2 81% 75.44 1005.9
18 12:56 W 28 G 44 16.09 NULL NULL 21.1 17.8 30 21.1 82% 75.31 1004.3
18 11:56 W 35 G 44 16.09 Overcast and Breezy BKN029 OVC035 22.2 18.9 82% 75.18 1002.2
Date Time (cdt) Wind (kph) Vis. (km) Weather Sky Cond. Air Dwpt Max. Min. Relative Humidity Wind Chill (°C) Heat Index (°C) altimeter (cm) sea level (mb) 1 hr 3 hr 6 hr
6 hour
Temperature (ºC) Pressure Precipitation (cm)